Find Beijing-1

NORAD ID: 28890 Int'l Des: 2005-043 Owner: BLMIT Country: CN operational
LEOCIRCULARRETROGRADESSO

リアルタイム位置

3D地球を読み込み中...

Beijing-1について

説明を読み込み中...

次回通過

Passes for default location (London). Set your location on the main map for personalized predictions.

高度履歴

Loading altitude history...

軌道要素

1 28890U 05043A 26106.96016396 .00000213 00000-0 50488-4 0 9999
2 28890 98.2802 239.8647 0015791 111.2732 249.0157 14.63495071 91690
Epoch: Apr 16, 2026 • Age: 9 hours

現在のステータス

高度 682.1 km
速度 7.53 km/s
衛星直下点 65.45°N, 116.79°E
打ち上げ日 Oct 27, 2005
運用期間 20.4 years
タイプ other

技術仕様

分類 Payload
質量 150.00 kg
乾燥質量 150.00 kg
総質量 150.00 kg
長さ 0.90 m
直径 0.80 m
スパン 0.90 m
形状 Box
製造者 SSTL
バスタイプ SSTL-150
フェーズステータス In Orbit
所有者/国 BLMIT/CN

Most Searched